[[{"header":{"parameterUnit":"m.s-1","parameterCategory":2,"la1":30.2992,"la2":30.254,"lo1":-89.0895,"lo2":-89.0443,"dy":0.0025,"dx":0.0025,"nx":19,"ny":19,"refTime":"2026-04-28T21:00:00:Z","depth":"0","parameterNumber":2,"parameterNumberName":"U-component_of_CURRENTS"},"data":[0,0,0,0.1492,0.1492,0.1506,0.1506,0.1426,0.1425,0,0,0,0,0,0,0,0,0,0,0,0.1495,0.1496,0.1491,0.1492,0.1506,0.1506,0.1426,0.1425,0,0,0,0,0,0,0,0,0,0,0,0.1495,0.1496,0.1497,0.1493,0.1506,0.1506,0.1426,0.1436,0,0,0,0,0,0,0,0,0,0,0.1434,0.1441,0.1496,0.1497,0.1493,0.1506,0.1506,0.1438,0.1436,0.1397,0,0.1422,0,0.1423,0.1419,0.1419,0,0,0,0.1477,0.1443,0.1465,0.1497,0.1493,0.1506,0.1495,0.1437,0.1435,0.1394,0.1421,0.1418,0.1422,0.1419,0.1418,0.1484,0.1485,0,0,0.1476,0.1471,0.1467,0.1464,0.1523,0.1495,0.1496,0.1437,0.1432,0.1421,0.1417,0.142,0.1418,0.1417,0.1483,0.1484,0,0,0,0.1484,0.147,0.1495,0.1467,0.1478,0.1496,0.1497,0.1434,0.1449,0.1416,0.1419,0.1417,0.1416,0.1481,0.1483,0.1519,0,0,0,0.1483,0.1477,0.1495,0.1488,0.1481,0.1465,0.1496,0.1454,0.1447,0.142,0.1417,0.1415,0.148,0.1482,0.1514,0.1513,0,0,0,0.149,0.1476,0.1491,0.1489,0.1503,0.1467,0.1477,0.1453,0.1449,0.1419,0.1415,0.1479,0.1482,0.151,0.1507,0.1596,0,0,0,0.1464,0.15,0.1492,0.1524,0.1504,0.1531,0.1478,0.1481,0.1465,0.1417,0.148,0.1483,0.1509,0.1504,0.1592,0.1711,0.1739,0,0,0.1497,0.1503,0.1524,0.1517,0.1576,0.1526,0.1553,0.1511,0.1505,0.1485,0.1487,0.1516,0.1507,0.1595,0.1903,0.1926,0,0,0,0.1525,0.1547,0.1569,0.1589,0.16,0.1601,0.1555,0.1568,0.1592,0.1515,0.1574,0.1569,0.1622,0.1688,0.1707,0.1707,0.1499,0.1498,0.1498,0.1536,0.1556,0.1594,0.1622,0.1636,0.1641,0.1656,0.1666,0.1632,0.1689,0.1641,0.1789,0.1863,0.1877,0.1877,0.1701,0.1702,0.1702,0.1702,0.1564,0.1559,0.1598,0.1643,0.1655,0.1666,0.1715,0.1726,0.1789,0.175,0.1802,0.1776,0.19,0.1892,0.1705,0.1705,0.1704,0.1704,0.1704,0.153,0.1527,0.1565,0.1603,0.1653,0.1689,0.1775,0.1792,0.1836,0.1867,0.198,0.198,0.1935,0.1914,0.1915,0.1915,0.1916,0.1916,0.1916,0.1443,0.1486,0.151,0.158,0.1609,0.1691,0.1807,0.189,0.2013,0.204,0.2042,0.2018,0.1854,0.1802,0.1923,0.1922,0.1921,0.192,0.192,0.1359,0.1393,0.142,0.1456,0.1564,0.1642,0.1813,0.2057,0.217,0.2262,0.2266,0.2155,0.2158,0.2144,0.2102,0.2293,0.2293,0.2293,0.2293,0.1274,0.1309,0.1318,0.1367,0.1461,0.1602,0.1788,0.2027,0.2287,0.2388,0.2417,0.2386,0.2371,0.2382,0.2363,0.2322,0.2565,0.2565,0.2565,0.1198,0.1222,0.1199,0.1286,0.1394,0.1551,0.1681,0.1879,0.2319,0.2569,0.2396,0.2384,0.2322,0.2298,0.2297,0.2271,0.2197,0,0]},{"header":{"parameterUnit":"m.s-1","parameterCategory":2,"la1":30.2992,"la2":30.254,"lo1":-89.0895,"lo2":-89.0443,"dy":0.0025,"dx":0.0025,"nx":19,"ny":19,"refTime":"2026-04-28T21:00:00:Z","depth":"0","parameterNumber":3,"parameterNumberName":"V-component_of_CURRENTS"},"data":[0,0,0,-0.0843,-0.085,-0.1139,-0.114,-0.1379,-0.1381,0,0,0,0,0,0,0,0,0,0,0,-0.0684,-0.0685,-0.0843,-0.0851,-0.1139,-0.114,-0.1379,-0.1381,0,0,0,0,0,0,0,0,0,0,0,-0.0683,-0.0684,-0.0686,-0.0852,-0.1139,-0.114,-0.1378,-0.1186,0,0,0,0,0,0,0,0,0,0,-0.0919,-0.08,-0.0684,-0.0686,-0.0854,-0.1138,-0.114,-0.1177,-0.1198,-0.1221,0,-0.1251,0,-0.1361,-0.1397,-0.1398,0,0,0,-0.0821,-0.0782,-0.0879,-0.0686,-0.0857,-0.1138,-0.1,-0.119,-0.1212,-0.1247,-0.1256,-0.1268,-0.1365,-0.1399,-0.14,-0.1388,-0.1386,0,0,-0.0805,-0.0724,-0.0863,-0.0892,-0.0913,-0.0991,-0.101,-0.1204,-0.1206,-0.1257,-0.1276,-0.1369,-0.14,-0.1402,-0.1389,-0.1387,0,0,0,-0.078,-0.0712,-0.0805,-0.0879,-0.0965,-0.1001,-0.1022,-0.1196,-0.1232,-0.1279,-0.1372,-0.1402,-0.1405,-0.1391,-0.1389,-0.1259,0,0,0,-0.0768,-0.0702,-0.0797,-0.0751,-0.0961,-0.1107,-0.1007,-0.1215,-0.1245,-0.1371,-0.1402,-0.1407,-0.1394,-0.139,-0.1267,-0.1177,0,0,0,-0.0674,-0.0694,-0.0723,-0.0746,-0.0895,-0.1106,-0.1152,-0.1224,-0.1303,-0.1398,-0.1408,-0.1395,-0.1391,-0.1274,-0.119,-0.114,0,0,0,-0.0586,-0.0592,-0.072,-0.0748,-0.0892,-0.102,-0.1152,-0.1262,-0.1331,-0.1403,-0.1393,-0.1389,-0.1277,-0.1198,-0.1147,-0.1,-0.0955,0,0,-0.054,-0.0583,-0.0599,-0.0723,-0.078,-0.098,-0.102,-0.1179,-0.1258,-0.1321,-0.1323,-0.1264,-0.1191,-0.1141,-0.0737,-0.07,0,0,0,-0.055,-0.0553,-0.0589,-0.0665,-0.08,-0.087,-0.1075,-0.1117,-0.1155,-0.1291,-0.1208,-0.1163,-0.1139,-0.1062,-0.1031,-0.1141,-0.1368,-0.1368,-0.1369,-0.0359,-0.0451,-0.0453,-0.0567,-0.0637,-0.0811,-0.0845,-0.0924,-0.1062,-0.1013,-0.1018,-0.0827,-0.0739,-0.0716,-0.0829,-0.0989,-0.0988,-0.0988,-0.0987,-0.0251,-0.0253,-0.0337,-0.0371,-0.0459,-0.0508,-0.0627,-0.0706,-0.0726,-0.0823,-0.0808,-0.0876,-0.0675,-0.0808,-0.0978,-0.098,-0.0981,-0.0982,-0.0982,-0.0116,-0.0128,-0.0158,-0.0187,-0.0189,-0.0315,-0.0271,-0.0411,-0.0544,-0.0536,-0.0515,-0.0516,-0.0675,-0.0557,-0.0557,-0.0556,-0.0556,-0.0555,-0.0555,0.0035,0.0003,0.0033,-0.0001,0.0011,0.0017,-0.0076,-0.0099,-0.02,-0.0315,-0.0315,-0.0573,-0.0697,-0.0762,-0.0544,-0.0546,-0.0547,-0.0548,-0.0549,0.0157,0.0164,0.0207,0.0229,0.0257,0.0359,0.0263,0.0254,0.0172,0.0164,-0.0197,-0.022,-0.0254,-0.0278,-0.0331,-0.0015,-0.0015,-0.0015,-0.0015,0.027,0.0265,0.0349,0.0411,0.0486,0.0512,0.0677,0.0616,0.031,0.0138,-0.0042,-0.0121,-0.0138,-0.0176,-0.0202,-0.0258,0.0069,0.0069,0.0068,0.0355,0.0366,0.0451,0.0493,0.0582,0.07,0.0878,0.0892,0.0426,0.005,-0.0221,-0.0224,-0.0374,-0.0392,-0.0487,-0.0515,-0.0621,0,0]}],[{"header":{"parameterUnit":"m.s-1","parameterCategory":2,"la1":30.2992,"la2":30.254,"lo1":-89.0895,"lo2":-89.0443,"dy":0.0025,"dx":0.0025,"nx":19,"ny":19,"refTime":"2026-04-28T21:00:00:Z","depth":"2","parameterNumber":2,"parameterNumberName":"U-component_of_CURRENTS"},"data":[0,0,0,0.1852,0.1856,0.1979,0.1979,0.2069,0.207,0,0,0,0,0,0,0,0,0,0,0,0.1775,0.1776,0.1852,0.1856,0.1979,0.1979,0.2069,0.207,0,0,0,0,0,0,0,0,0,0,0,0.1775,0.1776,0.1777,0.1857,0.1979,0.1979,0.2068,0.1985,0,0,0,0,0,0,0,0,0,0,0.187,0.1794,0.1776,0.1777,0.1858,0.1979,0.1979,0.1981,0.199,0.2005,0,0.2026,0,0.208,0.2077,0.2078,0,0,0,0.1823,0.1787,0.186,0.1777,0.1859,0.1979,0.1914,0.1986,0.1996,0.2016,0.2028,0.2033,0.2082,0.2078,0.2079,0.2159,0.2159,0,0,0.1816,0.1759,0.1853,0.1866,0.1895,0.191,0.1918,0.1993,0.1979,0.2029,0.2036,0.2083,0.2079,0.208,0.2159,0.2159,0,0,0,0.1819,0.1754,0.1825,0.1861,0.1906,0.1915,0.1924,0.1974,0.201,0.2038,0.2084,0.208,0.2081,0.2159,0.2159,0.2141,0,0,0,0.1813,0.176,0.1821,0.1783,0.1905,0.1947,0.1903,0.2003,0.2015,0.2084,0.208,0.2082,0.2159,0.2159,0.2141,0.2118,0,0,0,0.1769,0.1755,0.1779,0.1781,0.1858,0.1948,0.1984,0.2006,0.2045,0.2078,0.2082,0.2159,0.2159,0.2141,0.2119,0.2194,0,0,0,0.1693,0.1733,0.1776,0.1825,0.1858,0.198,0.1984,0.2037,0.2063,0.208,0.2159,0.2159,0.2141,0.212,0.2194,0.2292,0.2303,0,0,0.1712,0.1732,0.1767,0.1812,0.1938,0.1961,0.2026,0.2044,0.2067,0.2124,0.2127,0.2141,0.2119,0.2194,0.2297,0.2308,0,0,0,0.1753,0.1776,0.1822,0.1895,0.1994,0.202,0.2068,0.2071,0.2088,0.2094,0.2148,0.2135,0.2183,0.2241,0.225,0.2159,0.2159,0.2159,0.2159,0.1694,0.1774,0.1829,0.1923,0.1985,0.2062,0.208,0.2089,0.2113,0.2098,0.2125,0.2172,0.2232,0.224,0.214,0.214,0.214,0.214,0.214,0.1718,0.173,0.181,0.1887,0.1942,0.1989,0.206,0.2068,0.2128,0.2098,0.2148,0.2223,0.2248,0.2138,0.2139,0.2139,0.2139,0.2139,0.2139,0.1659,0.1666,0.1715,0.1797,0.1846,0.1925,0.2009,0.2052,0.2105,0.2146,0.2269,0.227,0.2182,0.219,0.2191,0.2191,0.2191,0.2191,0.2191,0.155,0.1603,0.1627,0.1716,0.1748,0.1835,0.1972,0.2072,0.2208,0.2255,0.2257,0.219,0.2188,0.2187,0.2195,0.2194,0.2194,0.2193,0.2193,0.1457,0.1482,0.1517,0.1552,0.1671,0.1746,0.1933,0.2182,0.2304,0.24,0.2356,0.2351,0.238,0.2374,0.2378,0.2435,0.2435,0.2435,0.2436,0.1357,0.1391,0.1404,0.1457,0.1555,0.1697,0.1844,0.1993,0.2208,0.224,0.2247,0.2213,0.2211,0.2227,0.2224,0.2223,0.2239,0.2238,0.2237,0.128,0.1304,0.128,0.1369,0.1487,0.1633,0.169,0.1708,0.1943,0.221,0.2017,0.246,0.2433,0.2421,0.2462,0.2451,0.2457,0,0]},{"header":{"parameterUnit":"m.s-1","parameterCategory":2,"la1":30.2992,"la2":30.254,"lo1":-89.0895,"lo2":-89.0443,"dy":0.0025,"dx":0.0025,"nx":19,"ny":19,"refTime":"2026-04-28T21:00:00:Z","depth":"2","parameterNumber":3,"parameterNumberName":"V-component_of_CURRENTS"},"data":[0,0,0,-0.0341,-0.0346,-0.0598,-0.0599,-0.0784,-0.0785,0,0,0,0,0,0,0,0,0,0,0,-0.0266,-0.0268,-0.034,-0.0346,-0.0597,-0.0599,-0.0784,-0.0785,0,0,0,0,0,0,0,0,0,0,0,-0.0265,-0.0268,-0.0271,-0.0347,-0.0597,-0.0599,-0.0784,-0.0628,0,0,0,0,0,0,0,0,0,0,-0.0401,-0.0355,-0.0267,-0.0271,-0.0349,-0.0597,-0.0599,-0.0622,-0.0637,-0.0631,0,-0.0693,0,-0.0736,-0.0795,-0.0795,0,0,0,-0.0347,-0.0343,-0.0405,-0.0271,-0.0351,-0.0597,-0.0484,-0.0632,-0.0649,-0.0651,-0.0696,-0.0703,-0.0739,-0.0796,-0.0796,-0.0782,-0.0781,0,0,-0.0333,-0.0311,-0.0394,-0.0417,-0.0443,-0.0476,-0.0492,-0.0644,-0.0672,-0.0696,-0.0708,-0.0742,-0.0797,-0.0798,-0.0783,-0.0782,0,0,0,-0.0293,-0.0301,-0.0363,-0.0408,-0.0462,-0.0483,-0.0502,-0.0666,-0.0687,-0.0711,-0.0745,-0.0797,-0.0799,-0.0785,-0.0783,-0.0732,0,0,0,-0.0284,-0.0278,-0.0357,-0.0346,-0.046,-0.0587,-0.0521,-0.0677,-0.0696,-0.0744,-0.0797,-0.08,-0.0786,-0.0784,-0.0736,-0.0661,0,0,0,-0.025,-0.0274,-0.031,-0.0345,-0.0452,-0.0586,-0.0617,-0.0683,-0.0715,-0.0795,-0.0801,-0.0787,-0.0784,-0.074,-0.0669,-0.0618,0,0,0,-0.0206,-0.0221,-0.0311,-0.033,-0.045,-0.0523,-0.0617,-0.0694,-0.0756,-0.0798,-0.0786,-0.0783,-0.0741,-0.0673,-0.0622,-0.0492,-0.046,0,0,-0.0174,-0.0218,-0.0217,-0.03,-0.0327,-0.0487,-0.0512,-0.0643,-0.07,-0.073,-0.0732,-0.0735,-0.0669,-0.0619,-0.0327,-0.03,0,0,0,-0.0168,-0.0196,-0.0219,-0.0267,-0.0337,-0.0415,-0.0556,-0.0615,-0.0673,-0.0728,-0.069,-0.0648,-0.062,-0.055,-0.0527,-0.0769,-0.077,-0.077,-0.077,-0.0114,-0.0129,-0.0138,-0.0195,-0.0239,-0.0363,-0.0409,-0.0497,-0.0603,-0.0603,-0.0577,-0.0453,-0.0375,-0.0357,-0.057,-0.057,-0.057,-0.057,-0.057,-0.0034,-0.0022,-0.0072,-0.0085,-0.0148,-0.0184,-0.0285,-0.0361,-0.0391,-0.049,-0.0468,-0.0459,-0.033,-0.0565,-0.0566,-0.0566,-0.0567,-0.0567,-0.0567,0.0034,0.0041,0.0021,0.0034,0.0008,-0.008,-0.0042,-0.0162,-0.028,-0.0261,-0.0219,-0.0219,-0.0427,-0.0288,-0.0288,-0.0287,-0.0287,-0.0286,-0.0286,0.015,0.0129,0.0153,0.0137,0.0145,0.0151,0.0077,0.0072,-0.0006,-0.0091,-0.0091,-0.0357,-0.0366,-0.0408,-0.0277,-0.0279,-0.028,-0.0281,-0.0281,0.0253,0.0252,0.0301,0.0317,0.035,0.0453,0.0371,0.0375,0.0312,0.0317,0.0006,-0.0004,0.0001,-0.0016,-0.0047,0.0169,0.0169,0.0169,0.0169,0.0339,0.0335,0.0425,0.0489,0.0564,0.0596,0.0738,0.0661,0.0476,0.0341,0.0333,0.0281,0.0261,0.0274,0.025,0.0221,0.0508,0.0508,0.0509,0.0419,0.0432,0.0514,0.056,0.0655,0.0775,0.0909,0.0834,0.0589,0.0515,0.0317,0.0206,0.0105,0.0082,0.0076,0.0049,-0.0009,0,0]}],[{"header":{"parameterUnit":"m.s-1","parameterCategory":2,"la1":30.2992,"la2":30.254,"lo1":-89.0895,"lo2":-89.0443,"dy":0.0025,"dx":0.0025,"nx":19,"ny":19,"refTime":"2026-04-28T21:00:00:Z","depth":"4","parameterNumber":2,"parameterNumberName":"U-component_of_CURRENTS"},"data":[0,0,0,0.1151,0.1154,0.1321,0.1321,0.1503,0.1505,0,0,0,0,0,0,0,0,0,0,0,0.1089,0.109,0.1151,0.1155,0.1321,0.1321,0.1503,0.1505,0,0,0,0,0,0,0,0,0,0,0,0.1089,0.109,0.1091,0.1155,0.132,0.1321,0.1503,0.1385,0,0,0,0,0,0,0,0,0,0,0.1228,0.1183,0.109,0.1091,0.1156,0.132,0.1321,0.138,0.1392,0.1419,0,0.1446,0,0.1482,0.1516,0.1517,0,0,0,0.1156,0.1172,0.121,0.1092,0.1158,0.132,0.1246,0.1387,0.1401,0.1435,0.1449,0.1456,0.1485,0.1517,0.1518,0.1664,0.1665,0,0,0.1147,0.1128,0.12,0.1219,0.1203,0.1241,0.1251,0.1396,0.1415,0.145,0.1461,0.1488,0.1518,0.152,0.1664,0.1664,0,0,0,0.112,0.1121,0.1157,0.1211,0.1245,0.1246,0.1258,0.1409,0.1419,0.1463,0.149,0.1519,0.1521,0.1664,0.1664,0.1783,0,0,0,0.1114,0.1105,0.1152,0.1144,0.1242,0.1336,0.1267,0.1409,0.1427,0.1489,0.1519,0.1523,0.1663,0.1664,0.1779,0.1762,0,0,0,0.1081,0.1102,0.112,0.1142,0.1213,0.1334,0.1354,0.1413,0.1443,0.1517,0.1523,0.1663,0.1664,0.1776,0.1758,0.1784,0,0,0,0.1057,0.1082,0.112,0.1173,0.1212,0.1308,0.1353,0.1459,0.1527,0.152,0.1663,0.1664,0.1775,0.1755,0.1781,0.148,0,0,0,0.1068,0.1084,0.1117,0.1154,0.122,0.1285,0.1396,0.1516,0.1541,0.1613,0.1617,0.1781,0.1758,0.1783,0.1529,0,0,0,0,0.1107,0.1114,0.1146,0.1203,0.1284,0.1375,0.1478,0.1577,0.171,0.1585,0.1763,0.1742,0.1756,0.1572,0.1668,0.1668,0.1668,0.1668,0.1667,0.1062,0.1114,0.1161,0.1223,0.13,0.146,0.1558,0.1692,0.1742,0.1837,0.1831,0.1907,0.1719,0.1854,0.1854,0.1855,0.1855,0.1856,0.1856,0.1052,0.108,0.1164,0.1233,0.1351,0.1469,0.1683,0.1779,0.1921,0.1948,0.1959,0.1698,0.1867,0.1865,0.1863,0.1862,0.1861,0.1861,0.186,0.1005,0.1026,0.1096,0.1205,0.1355,0.1521,0.1639,0.1817,0.1978,0.2005,0.18,0.1952,0.1951,0.2045,0.2046,0.2046,0.2046,0.2046,0.2046,0.0941,0.1002,0.1046,0.1176,0.1267,0.1407,0.1647,0.1709,0.1894,0.1835,0.2036,0.1968,0.1962,0.1958,0.2047,0.2047,0.2047,0.2047,0.2046,0.0887,0.0917,0.0964,0.1036,0.1184,0.1251,0.1474,0.155,0.1615,0.1622,0.1735,0.175,0.1657,0.1658,0.164,0.1638,0.1634,0.1631,0,0.0838,0.0853,0.09,0.0953,0.1007,0.1154,0.1155,0.126,0.1432,0.1394,0.1651,0.1778,0.1787,0.1681,0.1676,0.1651,0,0,0,0.0809,0.0823,0.0827,0.0867,0.0932,0.0993,0.114,0.1137,0.1396,0.1354,0.154,0.1564,0.1797,0.2051,0.1943,0.1936,0.1922,0,0]},{"header":{"parameterUnit":"m.s-1","parameterCategory":2,"la1":30.2992,"la2":30.254,"lo1":-89.0895,"lo2":-89.0443,"dy":0.0025,"dx":0.0025,"nx":19,"ny":19,"refTime":"2026-04-28T21:00:00:Z","depth":"4","parameterNumber":3,"parameterNumberName":"V-component_of_CURRENTS"},"data":[0,0,0,0.0378,0.038,0.0434,0.0434,0.0437,0.0437,0,0,0,0,0,0,0,0,0,0,0,0.0342,0.0342,0.0378,0.038,0.0434,0.0434,0.0437,0.0437,0,0,0,0,0,0,0,0,0,0,0,0.0341,0.0342,0.0343,0.038,0.0434,0.0434,0.0437,0.0406,0,0,0,0,0,0,0,0,0,0,0.0359,0.0346,0.0342,0.0343,0.0381,0.0434,0.0434,0.0405,0.0408,0.0402,0,0.0421,0,0.0449,0.0438,0.0438,0,0,0,0.0352,0.0343,0.0366,0.0343,0.0382,0.0434,0.0402,0.0407,0.041,0.0406,0.0421,0.0422,0.0449,0.0438,0.0439,0.0454,0.0454,0,0,0.035,0.034,0.0364,0.0369,0.0408,0.04,0.0404,0.0409,0.0412,0.0421,0.0423,0.0449,0.0439,0.0439,0.0454,0.0454,0,0,0,0.036,0.0338,0.0361,0.0367,0.0394,0.0403,0.0407,0.0411,0.0421,0.0423,0.0449,0.0439,0.0439,0.0454,0.0454,0.0514,0,0,0,0.0356,0.0346,0.036,0.0352,0.0394,0.0414,0.0408,0.042,0.0423,0.0449,0.0439,0.0439,0.0454,0.0454,0.0512,0.0527,0,0,0,0.0337,0.0344,0.0356,0.0352,0.0392,0.0415,0.0425,0.0421,0.0439,0.0438,0.0439,0.0454,0.0454,0.0511,0.0524,0.0512,0,0,0,0.0316,0.0349,0.0355,0.0395,0.0391,0.045,0.0425,0.0465,0.0471,0.0439,0.0454,0.0454,0.051,0.0522,0.0511,0.0452,0,0,0,0.0348,0.0352,0.0375,0.0384,0.0449,0.044,0.0484,0.0484,0.0462,0.0443,0.0444,0.0513,0.0524,0.0512,0.0456,0,0,0,0,0.0379,0.0404,0.0422,0.046,0.0492,0.0504,0.0514,0.0515,0.0506,0.0472,0.0497,0.0502,0.0493,0.0454,0.0455,0.0455,0.0455,0.0455,0.0455,0.0406,0.0428,0.047,0.0498,0.0531,0.0558,0.0554,0.0546,0.0543,0.0544,0.054,0.0556,0.0518,0.0532,0.0533,0.0533,0.0533,0.0533,0.0533,0.0451,0.0473,0.0499,0.0552,0.0563,0.0602,0.0601,0.0595,0.0579,0.0577,0.0565,0.0507,0.0539,0.0538,0.0537,0.0536,0.0536,0.0536,0.0535,0.046,0.0473,0.0503,0.0558,0.0609,0.0635,0.0647,0.0647,0.0622,0.0615,0.0556,0.0577,0.0582,0.0621,0.0621,0.0621,0.0621,0.0621,0.0621,0.0448,0.0479,0.0514,0.0574,0.0616,0.0655,0.0684,0.0657,0.065,0.0599,0.0637,0.0584,0.0581,0.0585,0.0621,0.0621,0.0621,0.0621,0.0621,0.0472,0.0474,0.0528,0.0567,0.0637,0.0657,0.0688,0.0634,0.0604,0.0556,0.0567,0.0569,0.0532,0.053,0.053,0.0552,0.0551,0.0551,0,0.0472,0.048,0.0544,0.0595,0.0629,0.0659,0.0616,0.059,0.0556,0.0552,0.0602,0.0618,0.0618,0.0579,0.0576,0.0578,0,0,0,0.0482,0.0499,0.0544,0.0589,0.0637,0.0594,0.0597,0.0573,0.0565,0.051,0.0534,0.0539,0.0588,0.0622,0.0569,0.0566,0.0568,0,0]}]]